Weather History for Whitefield, NH

Change the Weather History Date:

Friday, November 23, 2012

  Actual Average Record
Temperature  
Mean Temperature 37 °F -  
Max Temperature 55 °F 38 °F 61 °F (1999)
Min Temperature 19 °F 21 °F 1 °F (2000)
Degree Days  
Heating Degree Days 28    
Moisture  
Dew Point 25 °F    
Average Humidity 68    
Maximum Humidity 89    
Minimum Humidity 34    
Precipitation  
Precipitation 0.00 in - - ()
Sea Level Pressure  
Sea Level Pressure 29.84 in    
Wind  
Wind Speed 1 mph (West)    
Max Wind Speed 4 mph    
Max Gust Speed -    
Visibility 10 miles    
Events Rain    
Averages and records for this station are not official NWS values.
T = Trace of Precipitation, MM = Missing Value Source: NWS Daily Summary

Daily Weather History Graph

Daily Weather History Graph

Search for Another Location

Airport:

Trip Planner

Search our weather history database for the weather conditions in past years. The results will help you decide how hot, cold, wet, or windy it might be!

Date:

Astronomy

Nov. 23, 2012 Rise Set
Actual Time 6:53 AM EST 4:12 PM EST
Civil Twilight 6:20 AM EST 4:44 PM EST
Nautical Twilight 5:45 AM EST 5:19 PM EST
Astronomical Twilight 5:10 AM EST 5:54 PM EST
Moon 1:33 PM EST (11/23) 1:59 AM EST (11/23)
Length of Visible Light 10h 23m
Length of Day
9h 18m
Waxing Gibbous, 79% of the Moon is Illuminated
Nov 23
Waxing Gibbous
Nov 28
Full
Dec 6
Last Quarter
Dec 13
New
Dec 20
First Quarter

Hourly Weather History & Observations

Time (EST) Temp. Windchill Dew Point Humidity Pressure Visibility Wind Dir Wind Speed Gust Speed Precip Events Conditions
12:52 AM 23.0 °F - 19.0 °F 85% 30.08 in 10.0 mi Calm Calm - N/A   Clear
1:52 AM 21.9 °F - 18.0 °F 85% 30.08 in 10.0 mi Calm Calm - N/A   Clear
2:52 AM 21.0 °F - 17.1 °F 85% 30.06 in 10.0 mi Calm Calm - N/A   Clear
3:52 AM 19.9 °F - 16.0 °F 85% 30.04 in 10.0 mi Calm Calm - N/A   Clear
4:52 AM 19.9 °F - 15.1 °F 81% 30.04 in 10.0 mi Calm Calm - N/A   Clear
5:52 AM 19.0 °F - 15.1 °F 85% 30.03 in 10.0 mi Calm Calm - N/A   Clear
6:52 AM 19.0 °F - 15.1 °F 85% 30.01 in 10.0 mi Calm Calm - N/A   Clear
7:52 AM 21.0 °F - 17.1 °F 85% 29.98 in 10.0 mi Calm Calm - N/A   Clear
8:52 AM 30.9 °F - 26.1 °F 82% 29.94 in 10.0 mi Calm Calm - N/A   Clear
9:52 AM 37.9 °F - 30.0 °F 73% 29.93 in 10.0 mi Calm Calm - N/A   Clear
10:52 AM 42.1 °F - 30.9 °F 65% 29.89 in 10.0 mi Calm Calm - N/A   Clear
11:52 AM 45.0 °F - 30.9 °F 58% 29.82 in 10.0 mi Calm Calm - N/A   Clear
12:52 PM 51.1 °F - 30.0 °F 44% 29.78 in 10.0 mi Calm Calm - N/A   Clear
1:52 PM 50.0 °F - 30.9 °F 48% 29.75 in 10.0 mi WNW 3.5 mph - N/A   Mostly Cloudy
2:52 PM 55.9 °F - 28.0 °F 34% 29.71 in 10.0 mi Variable 3.5 mph - N/A   Partly Cloudy
3:52 PM 51.1 °F - 24.1 °F 35% 29.70 in 10.0 mi West 3.5 mph - N/A   Clear
4:52 PM 42.1 °F 40.2 °F 26.1 °F 53% 29.70 in 10.0 mi WNW 3.5 mph - N/A   Clear
5:52 PM 37.9 °F - 26.1 °F 62% 29.70 in 10.0 mi Calm Calm - N/A   Scattered Clouds
6:52 PM 41.0 °F - 28.0 °F 60% 29.68 in 10.0 mi Calm Calm - N/A   Overcast
7:52 PM 53.1 °F - 30.0 °F 41% 29.66 in 10.0 mi SW 3.5 mph - N/A   Overcast
8:52 PM 50.0 °F - 32.0 °F 50% 29.65 in 10.0 mi WSW 3.5 mph - N/A   Overcast
9:52 PM 42.1 °F - 34.0 °F 73% 29.63 in 10.0 mi Calm Calm - 0.00 in   Overcast
10:52 PM 41.0 °F - 35.1 °F 79% 29.61 in 10.0 mi Calm Calm - N/A   Overcast
11:52 PM 39.0 °F 36.8 °F 36.0 °F 89% 29.58 in 10.0 mi ENE 3.5 mph - 0.00 in Rain Light Rain